{"data":{"norad_id":68502,"epoch":"2026-09-20T04:03:50.908608Z","epoch_age_seconds":95043,"freshness":"FRESH","line1":"1 68502U 26067CQ  26263.16933922  .00000835  00000+0  88197-4 0  9998","line2":"2 68502  97.7733 220.0403 0003504  69.2394 290.9199 14.91860219 25888","mean_motion":14.91860219,"eccentricity":0.0003504,"inclination_deg":97.7733,"raan_deg":220.0403,"arg_perigee_deg":69.2394,"mean_anomaly_deg":290.9199,"bstar":8.8197e-5,"rev_number":2588,"period_min":96.52378833221,"perigee_km":589.69304167357,"apogee_km":594.5778085891,"semimajor_km":6970.2724251313,"source":"CELESTRAK","updated_at":"2026-09-20T09:00:24.262071Z"}}